Location: North Bay
(46.3091°N, 79.4608°W)
Time: 06:11:03
(UTC-05:00)

ISS - Visible Passes

Search period start: 23 November 2017 00:00
Search period end: 03 December 2017 00:00
Orbit: 402 x 407 km, 51.6° (Epoch: 23 November)

Date Brightness Start Highest point End Pass type
(mag) Time Alt. Az. Time Alt. Az. Time Alt. Az.
26 Nov -1.5 18:34:52 10° S 18:35:51 15° S 18:35:51 15° S visible
27 Nov -1.5 17:44:11 10° SSE 17:45:13 11° SE 17:45:56 11° ESE visible
27 Nov -0.9 19:17:54 10° SW 19:18:37 16° SW 19:18:37 16° SW visible
28 Nov -3.0 18:25:47 10° SW 18:28:36 38° SSE 18:28:36 38° SSE visible
29 Nov -2.3 17:34:00 10° SSW 17:36:40 23° SE 17:38:30 15° E visible
29 Nov -1.5 19:09:39 10° WSW 19:11:10 25° W 19:11:10 25° W visible
30 Nov -3.9 18:17:15 10° WSW 18:20:32 82° SSE 18:21:00 62° ENE visible
01 Dec -3.3 17:25:01 10° SW 17:28:11 48° SE 17:30:46 14° ENE visible
01 Dec -1.8 19:01:36 10° W 19:03:25 27° WNW 19:03:25 27° WNW visible
02 Dec -3.5 18:09:00 10° WSW 18:12:14 57° NNW 18:13:09 39° NE visible
